Regional Weather Roundup
Issued by NWS

Home | Current Version | Previous Version | Graphics & Text | Print | Product List | Glossary On
Versions: 1 2 3 4 5 6 7 8 9 10 11 12 13 14 15 16 17 18 19 20 21 22 23 24 25 26 27 28 29 30 31 32 33 34 35 36 37 38 39 40 41 42 43 44 45 46 47 48 49 50
388
ASUS43 KDTX 222210
RWRMI
MICHIGAN HOURLY REGIONAL WEATHER ROUNDUP
NATIONAL WEATHER SERVICE DETROIT/PONTIAC MI
ISSUED BY NATIONAL WEATHER SERVICE GRAND RAPIDS MI
500 PM EST WED FEB 22 2017

NOTE: "FAIR" INDICATES FEW OR NO CLOUDS BELOW 12,000 FEET WITH NO
SIGNIFICANT WEATHER AND/OR OBSTRUCTION TO VISIBILITY.

MIZ047>049-052>055-059>063-066>070-074>076-081>083-222300-
SOUTHEAST LOWER MICHIGAN

CITY           SKY/WX    TMP DP  RH WIND       PRES   REMARKS
ADRIAN         CLOUDY    61  54  77 SW13      29.75F
ALMA           MOSUNNY   61  53  75 S17G25    29.67F
ANN ARBOR      CLOUDY    63  53  70 S8        29.74F
BAD AXE        MOSUNNY   63  51  64 SW10      29.68F
DETROIT CITY   CLOUDY    61  54  77 S7        29.74F
DETROIT        CLOUDY    63  53  70 S12       29.75F
FLINT          PTSUNNY   61  53  75 S10       29.71F
GROSSE ILE     CLOUDY    50  47  89 S6        29.74F FOG
HILLSDALE      CLOUDY    59  52  77 S7        29.74F
HOWELL         CLOUDY    59  51  73 S7        29.73S

CITY           SKY/WX    TMP DP  RH WIND       PRES   REMARKS
JACKSON        CLOUDY    61  52  72 S10       29.73F
LANSING        PTSUNNY   61  52  72 S13       29.71F HAZE
MASON          CLOUDY    60  54  81 S3        29.72F
MONROE         CLOUDY    62  55  76 S17       29.75S
MT. CLEMENS    CLOUDY    57  54  90 S7        29.73F FOG
PONTIAC        CLOUDY    59  52  77 SW6       29.73F
PORT HOPE        N/A     63  52  67 VRB6      29.66F
PORT HURON     CLOUDY    59  54  82 SW7       29.74F
TRI CITIES     MOSUNNY   63  53  70 S14       29.66F
YPSILANTI      CLOUDY    64  55  72 SW10      29.75F
$$
MIZ043>046-050>051-056>058-064>065-071>073-077>080-222300-
SOUTHWEST LOWER MICHIGAN

CITY           SKY/WX    TMP DP  RH WIND       PRES   REMARKS
BATTLE CREEK   CLOUDY    61  53  75 SW14      29.73F
BENTON HARBOR  CLOUDY    64  54  69 S14       29.69F
BIG RAPIDS     PTSUNNY   59  53  78 SW10      29.62F
COLDWATER      CLOUDY    62  53  73 S7        29.73F
HOLLAND        SUNNY     65  52  62 S14       29.67F
GRAND RAPIDS   MOSUNNY   63  52  67 S13       29.67F
KALAMAZOO      CLOUDY    61  52  72 S16       29.73S
MARSHALL       CLOUDY    61  53  76 S8        29.72F
MOUNT PLEASANT MOSUNNY   64  52  64 S12       29.64F
MUSKEGON       PTSUNNY   56  52  86 S18G25    29.65F FOG
STURGIS        CLOUDY    60  55  81 SW7       29.73S
$$
MIZ016>042-222300-
NORTHERN LOWER MICHIGAN

CITY           SKY/WX    TMP DP  RH WIND       PRES   REMARKS
ALPENA         CLOUDY    56  50  80 S12       29.59F
BEAVER ISLAND  FOG       42  42 100 NW3       29.56F VSB 1/4
BELLAIRE       MOSUNNY   61  47  59 S7        29.55R
CADILLAC       MOSUNNY   55  50  83 S13G20    29.59F
CHARLEVOIX     FOG       40  40  99 N7        29.62R VSB 1/4
GAYLORD        SUNNY     55  44  66 S12       29.56F
HOUGHTON LAKE  CLOUDY    56  50  80 S9        29.62F
MANISTEE       MOSUNNY   56  50  80 S9        29.56F
OSCODA         PTSUNNY   55  52  88 S8G22     29.63F FOG
PELLSTON       CLOUDY    48  41  76 N9        29.59R
TRAVERSE CITY  PTSUNNY   62  47  57 SW7       29.53F
LUDINGTON      CLOUDY    54  51  92 S13G20    29.57F FOG
$$
MIZ007>008-015-222300-
EASTERN UPPER MICHIGAN

CITY           SKY/WX    TMP DP  RH WIND       PRES   REMARKS
KINROSS        CLOUDY    45  43  93 W7        29.60F
MACKINAC ISLAN CLOUDY    42  42 100 N5        29.60R FOG
NEWBERRY       CLOUDY    43  39  87 SW3       29.58F
S. S. MARIE    CLOUDY    42  39  89 SE5       29.60F
$$
MIZ004>006-011>014-085-222300-
CENTRAL UPPER MICHIGAN

CITY           SKY/WX    TMP DP  RH WIND       PRES   REMARKS
MANISTIQUE     MOSUNNY   43  42  97 CALM      29.57S
ESCANABA       CLOUDY    44  39  82 CALM      29.58R
MENOMINEE      PTSUNNY   48  42  80 VRB3      29.56R
SAWYER-GWINN   LGT RAIN  41  37  87 N3        29.60R
$$
MIZ001>003-009>011-084-222300-
WESTERN UPPER MICHIGAN

CITY           SKY/WX    TMP DP  RH WIND       PRES   REMARKS
IRON MOUNTAIN  CLOUDY    50  39  66 NW8       29.57R
HOUGHTON       CLOUDY    38  32  79 NE6       29.60R WCI  33
COPPER HARBOR    N/A     36  34  92 N10       29.62R WCI  28
IRONWOOD       CLOUDY    46  36  68 VRB5      29.56F
$$

ABBREVIATIONS USED IN REMARKS
   TC - TEMPERATURE IN CELSIUS
  WCI - WIND CHILL INDEX
   HX - HEAT INDEX
  VSB - VISIBILITY





USA.gov is the U.S. government's official web portal to all federal, state and local government web resources and services.